sat.trackr.live / text

‹ back to catalog

STARLINK-37145

NORAD 68548 · 2026-070G

PAYLOAD ACTIVE UNKNOWN

§ Identity

Operator
Country
US
Launch date
2026-04-02
Launch site
AFETR
Launch vehicle
Mass (kg)
RCS (m²)

Purposes: comms

External: N2YO · Heavens-Above · Gunter

§ Orbital elements

Epoch: 2026-05-25T00:12:34.915680Z

Period
93.86 min
Inclination
53.1617°
Eccentricity
0.0000849
Mean motion
15.34262895 rev/d
Perigee alt
462.5 km
Apogee alt
463.7 km
Semi-major
6,841.2 km
B*
-5.4154e-3
RAAN
7.8028°
Arg perigee
60.1772°
Mean anomaly
299.9315°
Rev number
824

§ Raw data

STARLINK-371451 68548U 26070G   26145.00873745 -.00178299  00000+0 -54154-2 0  99962 68548  53.1617   7.8028 0000849  60.1772 299.9315 15.34262895  8242

JSON: /api/v1/satellites/68548 · /tle

For live sub-satellite position, see the globe view (requires WebGL).

§ Visibility from observer

Set your observer location to see the next 7 days of passes ≥ 10°. The values pass through the URL so the page stays shareable.

No JS? Fill the form by hand. The geolocation button needs JavaScript.